Regional Weather Roundup
Issued by NWS Little Rock, AR

Home | Current Version | Previous Version | Text Only | Print | Product List | Glossary Off
Versions: 1 2 3 4 5 6 7 8 9 10 11 12 13 14 15 16 17 18 19 20 21 22 23 24 25 26 27 28 29 30 31 32

000
ASUS44 KLZK 261805
RWRLZK

WEATHER ROUNDUP FOR ARKANSAS
NATIONAL WEATHER SERVICE LITTLE ROCK AR
100 PM CDT MON JUN 26 2017

NOTE: "FAIR" INDICATES FEW OR NO CLOUDS BELOW 12,000 FEET WITH NO
SIGNIFICANT WEATHER AND/OR OBSTRUCTIONS TO VISIBILITY.

ARZ001-003-010-029-261900-
NORTHWEST ARKANSAS

CITY           SKY/WX    TMP DP  RH WIND       PRES   REMARKS
FAYETTEVILLE   SUNNY     81  55  40 S12       30.19F
6HR MIN TEMP:  62; 6HR MAX TEMP:  81;

FORT SMITH     MOSUNNY   84  62  47 SE6       30.16F HX  85
6HR MIN TEMP:  69; 6HR MAX TEMP:  85;

HARRISON       PTSUNNY   77  58  51 CALM      30.21F
6HR MIN TEMP:  64; 6HR MAX TEMP:  77;

BENTONVILLE    SUNNY     81  55  41 SW5       30.20F
6HR MIN TEMP:  66; 6HR MAX TEMP:  81;

ROGERS         SUNNY     83  56  39 S9G17     30.20F
6HR MIN TEMP:  67; 6HR MAX TEMP:  83;

SILOAM SPGS    SUNNY     82  54  36 SW9G17    30.18F
6HR MIN TEMP:  66; 6HR MAX TEMP:  82;

HIGHFILL       SUNNY     83  59  44 S13       30.19F
6HR MIN TEMP:  66; 6HR MAX TEMP:  83;

SPRINGDALE     MOSUNNY   81  54  39 S15       30.21F
$$

ARZ004-005-016-261900-
NORTH CENTRAL ARKANSAS

CITY           SKY/WX    TMP DP  RH WIND       PRES   REMARKS
BATESVILLE     SUNNY     81  55  41 SE6       30.19F
6HR MIN TEMP:  66; 6HR MAX TEMP:  81;

FLIPPIN        MOSUNNY   79  55  44 S6        30.17F
6HR MIN TEMP:  64; 6HR MAX TEMP:  79;

MTN HOME       MOSUNNY   77  58  51 SW7       30.19F
6HR MIN TEMP:  65; 6HR MAX TEMP:  78;

$$

ARZ040-041-261900-
WEST CENTRAL ARKANSAS

CITY           SKY/WX    TMP DP  RH WIND       PRES   REMARKS
MENA           CLOUDY    82  57  42 CALM      30.19F
MOUNT IDA      PTSUNNY   80  57  45 VRB5      30.16F
6HR MIN TEMP:  66; 6HR MAX TEMP:  82;

$$

ARZ009-017-025-026-028-261900-
NORTHEAST ARKANSAS

CITY           SKY/WX    TMP DP  RH WIND       PRES   REMARKS
CORNING        LGT RAIN  77  59  53 E3        30.19F
JONESBORO      MOSUNNY   79  58  48 VRB5      30.17F
6HR MIN TEMP:  69; 6HR MAX TEMP:  80;

WALNUT RIDGE   SUNNY     77  59  53 E5        30.18F
6HR MIN TEMP:  66; 6HR MAX TEMP:  79;

BLYTHEVILLE    SUNNY     79  58  48 NE9       30.18F
6HR MIN TEMP:  69; 6HR MAX TEMP:  80;

$$

ARZ022-023-033-042-044-261900-
CENTRAL ARKANSAS

CITY           SKY/WX    TMP DP  RH WIND       PRES   REMARKS
LITTLE ROCK    CLOUDY    83  61  47 E7        30.17F
6HR MIN TEMP:  69; 6HR MAX TEMP:  83;

N LITTLE ROCK    N/A     82  60  47 CALM      30.17F
6HR MIN TEMP:  68; 6HR MAX TEMP:  82;

JACKSONVILLE   MOSUNNY   83  64  52 E5        30.17F
6HR MIN TEMP:  67; 6HR MAX TEMP:  83;

CONWAY           N/A     84  59  42 VRB6      30.16F
SEARCY         SUNNY     82  60  47 E5        30.19F
6HR MIN TEMP:  68; 6HR MAX TEMP:  83;

HOT SPRINGS    CLOUDY    81  59  47 SE6       30.17F
6HR MIN TEMP:  68; 6HR MAX TEMP:  83;

RUSSELLVILLE   CLOUDY    81  60  48 VRB6      30.17F
6HR MIN TEMP:  67; 6HR MAX TEMP:  82;

CLINTON        FAIR      79  57  47 VRB3      30.19F
$$

ARZ036-261900-
EAST ARKANSAS

CITY           SKY/WX    TMP DP  RH WIND       PRES   REMARKS
WEST MEMPHIS   MOSUNNY   82  61  48 N5        30.16F
6HR MIN TEMP:  67; 6HR MAX TEMP:  82;

$$

ARZ050-053-066-070-073-261900-
SOUTHWEST ARKANSAS

CITY           SKY/WX    TMP DP  RH WIND       PRES   REMARKS
CAMDEN         CLOUDY    82  64  54 N5        30.15F
TEXARKANA      SUNNY     83  63  50 VRB5      30.15F
6HR MIN TEMP:  65; 6HR MAX TEMP:  84;

EL DORADO      SUNNY     84  63  49 NE7       30.15F HX  85
6HR MIN TEMP:  64; 6HR MAX TEMP:  85;

DE QUEEN       MOSUNNY   82  65  56 S8        30.15F
6HR MIN TEMP:  68; 6HR MAX TEMP:  82;

$$

ARZ056-057-069-261900-
SOUTHEAST ARKANSAS

CITY           SKY/WX    TMP DP  RH WIND       PRES   REMARKS
PINE BLUFF     PTSUNNY   80  60  50 VRB3      30.18F
6HR MIN TEMP:  66; 6HR MAX TEMP:  83; 6HR PCP: TRACE;

STUTTGART      CLOUDY   N/A N/A N/A S3        30.18F
MONTICELLO     CLOUDY    83  59  44 CALM      30.16F
6HR MIN TEMP:  64; 6HR MAX TEMP:  83;


$$






USA.gov is the U.S. government's official web portal to all federal, state and local government web resources and services.